Weather History for Hayward, WI

Change the Weather History Date:

Monday, November 7, 2011

  Actual Average Record
Temperature  
Mean Temperature 36 °F -  
Max Temperature 46 °F 44 °F 61 °F (2002)
Min Temperature 26 °F 35 °F 0 °F (2003)
Degree Days  
Heating Degree Days 29    
Moisture  
Dew Point 22 °F    
Average Humidity 57    
Maximum Humidity 88    
Minimum Humidity 41    
Precipitation  
Precipitation 0.00 in - - ()
Sea Level Pressure  
Sea Level Pressure 30.10 in    
Wind  
Wind Speed 7 mph (WSW)    
Max Wind Speed 10 mph    
Max Gust Speed 25 mph    
Visibility 10 miles    
Events      
Averages and records for this station are not official NWS values.
T = Trace of Precipitation, MM = Missing Value Source: NWS Daily Summary

Daily Weather History Graph

Daily Weather History Graph

Search for Another Location

Airport:

Trip Planner

Search our weather history database for the weather conditions in past years. The results will help you decide how hot, cold, wet, or windy it might be!

Date:

Astronomy

Nov. 07, 2011 Rise Set
Actual Time 6:54 AM CST 4:43 PM CST
Civil Twilight 6:22 AM CST 5:15 PM CST
Nautical Twilight 5:47 AM CST 5:51 PM CST
Astronomical Twilight 5:12 AM CST 6:25 PM CST
Moon 3:00 PM CST (11/7) 3:50 AM CST (11/7)
Length of Visible Light 10h 52m
Length of Day
9h 49m
Waxing Gibbous, 92% of the Moon is Illuminated
Nov 7
Waxing Gibbous
Nov 10
Full
Nov 18
Last Quarter
Nov 25
New
Dec 2
First Quarter

Hourly Weather History & Observations

Time (CST) Temp. Windchill Dew Point Humidity Pressure Visibility Wind Dir Wind Speed Gust Speed Precip Events Conditions
12:53 AM 42.1 °F 37.1 °F 23.0 °F 47% 29.93 in 10.0 mi SW 8.1 mph - N/A   Clear
1:53 AM 41.0 °F 36.4 °F 21.0 °F 45% 29.95 in 10.0 mi Variable 6.9 mph - N/A   Clear
2:53 AM 41.0 °F 37.1 °F 19.0 °F 41% 29.95 in 10.0 mi SW 5.8 mph - N/A   Clear
3:53 AM 39.9 °F 35.1 °F 19.0 °F 43% 29.96 in 10.0 mi SW 6.9 mph - N/A   Clear
4:53 AM 39.0 °F 32.8 °F 19.0 °F 45% 29.98 in 10.0 mi SW 9.2 mph 19.6 mph N/A   Clear
5:53 AM 37.9 °F 31.5 °F 18.0 °F 45% 30.00 in 10.0 mi SW 9.2 mph 16.1 mph N/A   Clear
6:53 AM 37.0 °F 29.8 °F 19.0 °F 48% 30.02 in 10.0 mi WSW 10.4 mph 25.3 mph N/A   Clear
7:53 AM 37.0 °F 30.4 °F 19.9 °F 50% 30.06 in 10.0 mi WSW 9.2 mph 16.1 mph N/A   Clear
9:53 AM 39.9 °F 33.4 °F 23.0 °F 51% 30.11 in 10.0 mi WSW 10.4 mph 20.7 mph N/A   Clear
11:53 AM 44.1 °F 39.5 °F 25.0 °F 47% 30.13 in 10.0 mi WSW 8.1 mph - N/A   Clear
12:53 PM 46.0 °F 41.9 °F 24.1 °F 42% 30.13 in 10.0 mi SW 8.1 mph 19.6 mph N/A   Clear
1:53 PM 46.9 °F - 25.0 °F 42% 30.13 in 10.0 mi West 6.9 mph - N/A   Clear
3:53 PM 45.0 °F 40.1 °F 24.1 °F 44% 30.16 in 10.0 mi WSW 9.2 mph - N/A   Clear
5:53 PM 35.1 °F - 26.1 °F 70% 30.21 in 10.0 mi Calm Calm - N/A   Clear
6:53 PM 30.0 °F - 24.1 °F 79% 30.22 in 10.0 mi Calm Calm - N/A   Clear
8:53 PM 28.0 °F - 23.0 °F 81% 30.26 in 10.0 mi Calm Calm - N/A   Clear
9:53 PM 26.1 °F - 23.0 °F 88% 30.26 in 10.0 mi Calm Calm - N/A   Clear
10:53 PM 26.1 °F - 21.9 °F 84% 30.24 in 10.0 mi Calm Calm - N/A   Clear
11:53 PM 26.1 °F - 21.9 °F 84% 30.25 in 10.0 mi Calm Calm - N/A   Clear